This demonstration page uses our WeatherBlox Daily Observations layout. Learn more.

Left ArrowRight Arrow

44.8408, -93.29828

Hourly Observations for July 14, 2016

Temp ( °F °C ) Dew Point ( °F °C ) Humidity (%) Winds ( mph kmh ) Pressure ( in mb ) Visibility ( mi km ) Precip ( " mm )
12:53 am 00:53 Mostly Clear 70 21.1 53 11.7 55 55 W 14 22 29.78 1009 10 16 0.00 0.00
1:53 am 01:53 Cloudy 70 21.1 54 12.2 57 57 W 17 28 29.78 1008 10 16 0.00 0.00
2:53 am 02:53 Mostly Cloudy 69 20.6 54 12.2 59 59 W 16 26 29.77 1008 10 16 0.00 0.00
3:53 am 03:53 Mostly Cloudy 68 20 55 12.8 63 63 W 10 17 29.77 1008 10 16 0.00 0.00
4:53 am 04:53 Mostly Cloudy 68 20 56 13.3 65 65 W 10 17 29.78 1008 10 16 0.00 0.00
5:53 am 05:53 Mostly Sunny 67 19.4 57 13.9 71 71 WNW 12 19 29.78 1009 10 16 0.00 0.00
6:53 am 06:53 Partly Cloudy 68 20 58 14.4 70 70 WNW 14 22 29.80 1009 10 16 0.00 0.00
7:53 am 07:53 Mostly Cloudy 69 20.6 59 15 70 70 WNW 14 22 29.82 1010 10 16 0.00 0.00
8:38 am 08:38 Cloudy 70 21 59 15 69 69 W 15 24 29.85 1011 10 16 0.00 0.00
8:53 am 08:53 Mostly Cloudy 70 21.1 59 15 68 68 W 14 22 29.84 1010 10 16 0.00 0.00
9:10 am 09:10 Mostly Cloudy 70 21 57 14 64 64 W 17 28 29.85 1011 10 16 0.00 0.00
9:31 am 09:31 Cloudy 69 20.6 58 14.4 68 68 W 17 28 29.85 1011 10 16 0.00 0.00
9:41 am 09:41 Cloudy 69 20.6 58 14.4 68 68 W 17 28 29.85 1011 10 16 0.00 0.00
9:53 am 09:53 Cloudy 69 20.6 57 13.9 66 66 W 17 28 29.85 1011 10 16 0.00 0.00
10:53 am 10:53 Cloudy with Light Rain 68 20 56 13.3 65 65 WNW 18 30 29.85 1011 10 16 0.00 0.03
11:53 am 11:53 Cloudy 69 20.6 54 12.2 59 59 WNW 14 22 29.86 1011 10 16 0.00 0.03
12:53 pm 12:53 Cloudy 69 20.6 54 12.2 59 59 WNW 18 30 29.88 1012 10 16 0.00 0.00
1:53 pm 13:53 Cloudy 69 20.6 56 13.3 63 63 NW 14 22 29.89 1012 10 16 0.00 0.00
2:53 pm 14:53 Cloudy with Light Rain 68 20 57 13.9 68 68 WNW 15 24 29.89 1012 10 16 0.00 0.03
3:53 pm 15:53 Cloudy 68 20 58 14.4 70 70 WNW 14 22 29.90 1013 10 16 0.00 0.03
4:53 pm 16:53 Cloudy with Rain 63 17.2 59 15 87 87 NW 15 24 29.91 1013 4 6 0.02 0.51
5:53 pm 17:53 Cloudy 66 18.9 60 15.6 81 81 WNW 13 20 29.91 1013 10 16 0.00 0.03
6:14 pm 18:14 Cloudy with Light Rain 63 17.2 60 15.6 90 90 NW 12 19 29.91 1013 5 8 0.04 1.02
6:17 pm 18:17 Cloudy with Light Rain 63 17.2 60 15.6 90 90 WNW 10 17 29.91 1013 8 13 0.04 1.02
6:53 pm 18:53 Cloudy with Light Rain 64 17.8 60 15.6 87 87 WNW 13 20 29.92 1013 10 16 0.04 1.02
7:04 pm 19:04 Cloudy with Light Rain 63 17.2 59 15 87 87 NW 12 19 29.94 1014 7 11 0.00 0.03
7:16 pm 19:16 Cloudy 63 17.2 60 15.6 90 90 NW 9 15 29.94 1014 10 16 0.00 0.03
7:48 pm 19:48 Cloudy 64 18 61 16 88 88 WNW 7 11 29.94 1014 10 16 0.00 0.00
7:53 pm 19:53 Cloudy 64 17.8 60 15.6 87 87 NW 10 17 29.93 1014 10 16 0.00 0.03
8:11 pm 20:11 Cloudy 64 17.8 60 15.6 87 87 WNW 9 15 29.94 1014 10 16 0.00 0.00
8:28 pm 20:28 Cloudy 64 18 59 15 83 83 NW 13 20 29.94 1014 10 16 0.00 0.00
8:51 pm 20:51 Cloudy with Light Rain 63 17 61 16 94 94 NW 9 15 29.94 1014 4 6 0.00 0.03
8:53 pm 20:53 Cloudy with Light Rain 63 17.2 60 15.6 90 90 NW 8 13 29.95 1014 4 6 0.01 0.25
9:00 pm 21:00 Cloudy with Light Rain 63 17 61 16 94 94 WNW 8 13 29.94 1014 4 6 0.00 0.00
9:14 pm 21:14 Cloudy 63 17 61 16 94 94 WNW 9 15 29.94 1014 10 16 0.00 0.00
9:53 pm 21:53 Cloudy 63 17.2 60 15.6 90 90 WNW 9 15 29.96 1015 10 16 0.00 0.03
10:53 pm 22:53 Cloudy with Light Rain 62 16.7 60 15.6 93 93 NW 9 15 29.97 1015 7 11 0.01 0.25
11:53 pm 23:53 Cloudy 63 17.2 60 15.6 90 90 NNW 8 13 29.98 1015 7 11 0.01 0.25

Powered by AerisWeather